Temperature
26 25 24 24 27 29 30 30 30 30 30 30 29 28 27 27 25 23 22 21 20 20 20 19 19 19 18 18 18 18 18 18 18 18 18 18 18 18 18 18 18 18 18 18 18 18 18 18 18
26 25 25 28 29 30 29 30 30 30 30 29 29 28 27 26 24 23 22 21 20 20 19 19 19 19 18 18 18 18 18 18 18 18 18 18 18 18 18 18 18 18 18 18 18 18 18 18 18
26 26 28 31 31 30 30 31 31 31 30 29 28 27 26 25 24 23 22 21 21 20 20 20 19 19 19 18 18 18 18 18 18 18 18 18 18 18 18 18 18 18 18 18 18 18 18 18 18
26 28 31 32 32 32 32 31 32 31 30 29 28 27 25 25 24 23 22 22 21 20 19 20 19 19 19 18 18 18 18 18 18 18 18 18 18 18 18 18 18 18 18 18 17 18 18 18 18
28 31 33 32 32 33 33 32 32 31 30 29 28 26 25 24 23 23 22 22 21 20 20 20 19 19 19 19 18 18 18 18 18 18 18 18 18 18 18 18 18 18 18 18 18 18 18 18 18
31 33 32 32 32 33 33 32 32 31 30 29 28 26 25 24 24 23 23 22 21 20 20 20 20 19 19 19 19 18 18 18 18 18 18 18 18 18 18 18 18 18 18 18 18 18 18 18 18
33 34 33 33 32 32 33 33 32 31 30 29 28 26 25 24 24 23 23 22 22 21 20 20 19 19 19 19 19 19 18 18 18 18 18 18 18 18 18 18 18 18 18 18 18 18 18 18 18
34 34 33 33 33 32 33 32 32 31 30 29 29 27 25 24 24 23 23 22 22 21 20 20 19 19 19 19 19 19 19 18 18 18 18 18 18 18 18 18 18 18 18 18 18 18 18 18 18
35 33 32 33 33 33 33 32 32 31 30 29 28 27 25 24 24 24 23 22 22 21 21 20 20 19 19 19 19 19 19 18 18 18 18 18 18 18 18 18 18 18 18 18 18 18 18 18 18
35 33 33 35 35 34 34 33 32 32 30 29 27 26 25 25 24 24 23 23 22 21 21 21 20 20 19 19 19 19 18 18 18 18 18 18 18 18 18 18 18 18 18 18 18 18 18 18 18
35 34 35 35 35 34 34 33 33 32 31 29 27 26 25 25 25 24 24 23 23 22 21 21 20 20 20 19 19 19 19 18 18 18 18 18 18 18 18 18 18 18 18 18 18 18 18 18 18
36 35 35 35 35 34 34 33 33 32 31 29 28 27 26 25 25 25 24 23 23 22 21 21 20 20 20 20 19 19 19 19 18 18 18 18 18 18 18 18 18 18 18 18 18 18 18 18 18
36 36 35 35 35 34 34 33 33 32 30 29 28 27 26 26 25 25 24 23 23 22 21 21 20 20 20 20 19 19 19 19 19 18 18 18 18 18 18 18 18 18 18 18 18 18 18 18 18
36 36 36 35 35 34 34 33 33 32 30 29 28 28 27 26 26 25 24 23 22 22 21 21 20 20 20 20 20 20 19 19 19 18 18 18 18 18 18 18 18 18 18 18 18 18 18 18 18
36 36 36 35 35 35 34 33 32 31 31 30 29 28 28 27 26 25 24 23 22 22 21 21 20 20 20 20 20 20 19 19 19 19 19 18 18 18 18 18 18 18 18 18 18 18 18 18 18
36 35 33 34 34 34 34 32 32 32 31 30 30 29 28 27 27 25 24 23 23 22 21 21 20 20 20 20 19 19 19 19 19 19 19 19 18 18 18 18 18 18 18 18 18 18 18 18 18
34 33 33 33 34 35 34 32 33 32 32 31 30 29 28 27 27 26 25 24 23 22 21 21 21 20 20 20 20 19 19 19 19 19 19 19 18 18 18 18 18 18 18 18 18 18 18 18 18
33 33 32 32 34 35 34 34 33 32 32 31 30 30 29 28 27 26 25 24 23 22 21 21 21 20 20 20 20 19 19 19 19 19 19 19 18 18 18 18 18 18 18 18 18 18 18 18 18
35 33 32 33 34 34 34 34 33 33 33 32 31 30 29 28 27 26 25 24 23 22 21 21 21 20 20 20 20 20 19 19 19 19 19 19 19 18 19 18 18 18 18 18 18 18 18 18 18
35 34 33 34 35 34 34 34 34 34 34 33 32 31 30 29 28 26 25 25 23 22 22 21 21 21 20 20 20 20 20 20 19 19 19 19 19 19 19 19 19 18 18 18 18 18 18 18 18
35 34 34 33 34 35 34 32 32 33 33 33 32 31 31 30 28 27 26 25 24 23 22 21 21 21 21 20 20 20 20 20 19 19 19 19 19 19 19 19 19 18 18 18 18 18 18 18 18
34 36 35 34 34 33 33 31 31 32 32 33 33 32 30 30 29 27 26 25 24 23 22 22 21 21 21 20 20 20 20 20 20 20 19 19 19 19 19 19 19 19 18 18 18 18 18 18 18
35 36 36 35 34 33 33 32 31 32 31 32 33 32 31 30 30 28 27 26 25 24 23 22 22 21 21 21 20 20 20 20 20 20 20 19 19 19 19 19 19 19 19 19 19 18 18 18 18
36 35 35 35 34 31 32 32 31 32 32 32 32 32 31 31 30 29 28 26 25 24 23 22 22 22 21 21 21 20 20 20 20 20 20 19 19 19 19 19 19 19 19 19 19 18 18 18 18
35 33 32 31 31 31 32 32 32 33 33 33 32 32 32 31 30 29 28 27 26 25 24 23 22 22 22 21 21 21 20 20 20 20 20 20 20 19 19 19 19 19 19 18 18 18 18 18 18
34 34 31 30 30 30 31 31 32 34 34 34 33 33 32 31 30 29 28 27 26 25 24 23 23 22 22 22 21 21 21 20 20 20 20 20 20 20 20 19 19 19 19 18 18 18 18 18 18
33 33 34 33 32 31 31 31 32 33 34 34 34 33 32 31 31 30 29 27 26 25 24 24 23 22 22 22 22 21 21 21 20 20 20 20 20 20 20 19 19 19 19 18 18 18 18 18 18
34 34 34 32 30 30 31 31 30 30 31 33 33 33 32 31 31 30 29 28 26 25 25 24 23 23 22 22 22 21 21 21 21 20 20 20 20 20 20 19 19 19 19 19 18 18 18 18 18
33 33 32 32 32 31 30 30 32 30 31 32 33 32 32 31 31 30 29 28 27 25 24 24 23 22 22 22 22 21 21 21 21 20 20 20 20 20 20 19 19 19 18 18 18 18 18 18 18
33 33 33 31 30 31 31 31 33 32 31 31 32 31 31 31 30 29 28 27 26 26 24 23 23 22 22 22 22 21 21 21 20 20 20 20 20 20 20 19 19 19 18 18 18 18 18 18 18
Wind_Speed
10 12 10 7 5 3 15 15 16 16 15 14 16 15 19 17 12 11 10 14 16 15 14 13 12 12 12 13 14 14 13 13 13 13 13 13 13 14 14 15 14 14 14 14 14 14 14 13 12
10 12 10 6 1 10 14 14 14 13 12 13 17 18 19 19 16 13 12 13 15 15 14 14 13 13 13 13 14 13 13 13 13 13 12 12 12 13 13 13 13 13 13 13 13 13 13 12 11
12 15 8 1 10 14 14 13 12 12 11 13 17 18 15 14 15 12 13 15 15 16 16 15 13 13 13 13 12 12 12 13 13 13 12 11 12 12 13 13 13 13 13 13 12 13 12 11 10
8 8 3 5 16 16 14 11 11 12 11 13 14 13 15 14 14 14 14 15 15 16 16 15 13 13 13 12 12 12 12 12 12 12 11 11 11 12 12 12 12 12 12 12 12 11 11 10 8
10 6 2 10 16 14 13 13 12 13 14 16 17 16 16 16 16 15 14 14 15 16 16 15 14 13 13 12 12 11 11 11 12 11 11 11 11 11 11 12 12 11 11 11 11 11 10 8 7
6 2 4 11 15 14 13 13 13 14 13 15 16 17 14 13 13 12 13 12 14 16 15 15 14 14 13 12 12 11 11 11 11 11 10 10 10 11 11 11 11 11 11 11 11 10 9 7 6
4 3 7 12 13 13 13 13 14 13 12 12 15 15 13 13 12 12 12 12 13 14 15 14 14 13 13 12 11 11 11 11 11 10 10 10 10 10 11 11 11 11 10 10 10 9 8 6 5
4 4 9 12 13 14 14 14 13 13 12 10 11 12 13 13 12 12 12 12 11 10 12 12 13 13 13 12 12 11 11 11 10 10 9 10 10 11 11 11 11 11 10 10 9 9 7 6 5
3 5 9 10 12 13 13 13 12 13 13 12 14 16 16 15 13 12 11 11 9 8 8 10 11 11 12 13 13 12 11 10 10 9 9 9 8 10 10 10 11 10 10 9 9 8 7 7 6
4 7 9 10 11 12 11 10 10 11 13 15 17 17 16 14 12 11 10 11 10 9 8 7 8 9 9 10 12 10 10 9 8 8 9 7 6 7 10 11 12 11 10 9 9 8 7 7 6
7 7 7 9 10 11 11 10 9 10 12 14 16 16 15 13 11 10 10 10 10 9 8 9 7 7 7 6 7 6 7 9 7 8 8 7 7 8 9 9 9 10 10 8 9 8 7 6 5
4 7 5 9 9 9 10 10 11 12 13 15 16 16 14 12 11 10 10 10 11 10 8 9 8 7 5 4 4 5 5 5 5 7 7 6 3 3 5 4 7 8 7 6 7 6 7 5 5
1 5 5 7 8 8 9 8 12 13 14 16 16 15 14 12 11 11 10 10 10 9 8 9 9 7 5 2 1 4 4 5 7 6 5 5 3 3 4 3 4 5 7 5 4 3 2 1 2
1 2 5 6 7 7 8 8 10 12 14 15 15 14 13 12 12 11 11 10 10 9 9 9 9 7 5 3 1 2 3 4 6 6 7 5 4 4 3 3 2 2 4 5 4 3 3 2 1
6 6 5 4 3 6 6 6 8 12 13 13 13 13 13 12 12 12 11 11 11 9 9 9 9 8 6 4 3 3 3 5 4 5 7 5 5 5 3 2 2 3 4 4 3 2 2 3 3
10 9 5 3 3 4 5 6 10 13 13 12 13 13 12 11 12 12 12 11 11 10 9 7 8 10 7 4 2 1 2 4 4 5 6 6 5 6 3 2 2 3 4 3 3 2 2 2 2
12 8 6 5 5 6 6 7 12 13 14 13 13 13 13 12 11 12 13 12 11 10 9 7 5 8 8 6 4 2 1 2 3 4 5 5 5 5 4 2 2 3 2 2 3 3 2 2 2
9 5 4 5 7 8 7 7 12 13 13 14 14 13 14 14 12 12 12 13 12 11 10 8 7 7 7 5 4 2 2 2 2 3 4 5 5 5 4 3 3 3 2 1 1 2 1 2 3
9 5 7 6 6 8 7 5 11 13 13 14 13 13 14 13 14 14 13 14 13 11 10 9 8 8 6 5 5 4 4 3 3 3 5 6 5 4 3 1 2 2 2 2 2 2 2 3 2
12 10 9 6 7 7 6 6 8 11 11 13 15 15 15 15 15 14 14 14 14 12 11 10 9 9 8 6 4 4 4 3 3 3 4 5 5 4 5 3 3 3 2 2 3 2 2 3 3
14 12 9 8 8 7 7 6 7 8 8 9 13 14 14 17 16 15 14 13 14 14 13 12 10 10 8 7 5 4 3 2 3 4 4 4 5 5 3 4 3 3 3 3 4 4 4 4 3
14 12 10 9 10 7 7 6 6 7 8 11 12 13 14 14 16 16 15 14 14 14 14 11 10 9 8 7 6 7 6 5 4 4 4 5 5 5 4 4 3 2 2 3 4 4 4 4 4
13 12 12 12 12 11 8 8 7 11 10 10 11 12 12 14 16 17 17 15 14 15 14 12 11 9 9 8 7 6 5 4 4 4 5 5 5 5 4 4 3 3 2 2 2 1 3 3 4
12 13 14 13 12 13 12 11 6 7 9 7 8 10 13 12 12 15 16 14 13 13 13 13 12 10 9 8 7 7 6 4 4 4 5 5 4 4 4 4 3 3 3 2 3 2 3 3 4
14 13 11 11 10 11 10 12 6 8 9 10 11 12 13 12 11 13 15 16 14 14 14 14 13 11 10 10 8 7 6 6 5 5 5 5 4 4 5 4 4 3 3 3 3 3 3 3 4
15 17 14 12 11 10 9 10 8 7 6 8 10 12 13 13 14 14 16 15 14 14 14 14 14 12 11 10 8 7 6 6 5 5 4 5 3 3 5 5 5 4 3 3 3 3 3 3 4
17 17 17 15 16 12 9 8 6 4 1 5 7 10 11 11 11 13 14 14 14 14 13 13 13 12 11 10 9 7 7 6 5 5 5 4 3 4 6 5 5 4 4 3 3 3 3 2 3
17 16 12 13 12 13 11 10 5 5 4 4 6 8 9 11 12 13 13 14 13 12 11 12 12 11 10 9 9 9 8 6 5 5 5 4 4 3 4 5 4 4 4 4 3 3 3 3 3
16 17 14 12 12 13 10 6 3 6 5 6 6 8 9 9 10 10 11 13 12 12 12 11 12 11 10 9 8 7 8 7 7 6 6 5 4 4 4 5 5 4 4 4 4 4 4 4 3
15 17 16 12 11 12 12 6 2 5 4 2 2 5 6 6 8 10 9 9 10 10 10 10 10 11 10 9 9 8 7 7 7 7 6 5 5 4 4 4 5 5 5 4 4 4 3 3 3
Wind_Direction
193 206 210 229 239 79 63 60 60 60 58 56 58 63 59 58 70 90 105 109 110 109 108 102 100 101 103 100 98 96 96 100 103 103 102 103 105 107 110 112 113 113 113 114 115 116 114 114 114
216 219 222 242 287 67 65 64 65 66 66 66 68 72 71 69 81 98 104 109 113 111 109 104 104 103 105 103 101 99 97 99 101 103 104 107 109 110 111 113 114 115 117 118 119 120 118 117 119
240 246 254 216 59 65 68 69 78 76 75 78 73 65 67 81 90 103 114 116 108 106 106 108 107 108 108 107 106 104 102 102 102 102 105 108 111 112 112 112 113 114 116 120 124 123 122 122 125
245 240 224 65 68 67 73 80 84 81 77 79 83 77 70 82 98 110 119 115 112 113 111 111 111 114 113 112 110 108 107 105 105 105 106 113 116 118 117 116 114 116 118 122 125 123 124 127 132
242 264 88 74 73 73 75 79 80 79 77 80 85 90 85 88 101 114 120 118 116 113 114 118 119 117 116 115 112 110 108 110 110 110 110 115 121 123 122 119 118 120 122 123 122 124 126 130 139
259 263 67 77 76 74 78 83 84 85 88 95 99 99 97 106 110 115 116 116 117 115 116 121 124 124 122 120 120 117 113 113 115 117 116 116 121 129 124 124 121 122 124 126 127 128 130 134 142
282 26 68 80 81 75 72 74 83 87 87 92 105 107 114 114 113 111 111 110 110 116 124 133 136 131 129 127 127 124 120 117 120 122 125 127 127 128 128 128 127 127 128 131 135 135 137 142 151
311 28 63 75 84 82 80 76 79 84 85 90 106 113 121 124 126 119 114 106 107 118 126 137 139 141 142 139 138 133 131 130 131 133 135 136 136 138 138 138 137 135 134 136 138 143 147 156 171
352 57 64 73 83 89 90 91 93 96 91 82 82 105 122 132 127 125 121 116 117 119 123 135 136 147 149 143 143 145 146 146 148 150 155 155 154 150 150 141 143 143 142 143 147 153 162 172 189
60 68 77 85 91 93 94 99 109 105 100 97 97 108 123 132 135 137 135 132 132 131 124 125 130 140 137 133 141 154 149 152 165 154 161 167 156 149 142 147 151 151 153 155 164 173 182 196 196
81 80 86 89 93 99 101 97 96 98 105 114 121 128 136 140 146 141 138 137 133 128 123 128 120 108 109 121 140 145 143 147 158 152 156 167 160 156 148 155 160 167 171 174 170 186 205 206 199
97 100 93 95 94 95 95 96 91 86 100 116 128 137 141 149 148 140 134 131 125 124 126 118 111 98 86 101 127 143 144 147 147 153 165 160 167 158 145 157 173 174 181 178 174 197 207 200 198
116 118 117 115 115 106 105 100 101 104 113 122 133 142 148 152 146 138 129 126 125 128 125 115 112 104 97 85 136 134 129 140 144 144 161 161 161 133 136 158 178 181 173 169 187 203 180 171 212
215 188 149 142 133 139 133 126 120 120 126 133 141 148 152 149 147 139 136 135 133 132 128 124 126 126 126 145 148 113 141 142 140 154 164 167 143 125 134 153 171 176 169 168 178 187 170 192 225
234 222 191 155 166 158 147 135 131 134 138 144 150 153 153 155 151 148 148 148 144 139 137 139 144 141 152 166 179 160 164 147 141 141 146 146 141 143 163 170 169 164 174 165 171 196 178 191 201
247 240 214 180 211 192 200 159 153 154 152 158 160 157 157 159 158 154 151 150 146 146 143 159 158 149 158 165 184 156 150 124 127 138 141 147 149 155 175 180 175 177 180 170 183 197 197 207 215
250 245 210 191 220 218 216 154 159 168 165 168 170 164 164 167 165 157 155 153 148 147 148 156 147 146 158 162 171 174 127 107 133 139 145 159 168 163 179 184 165 189 197 195 210 165 199 211 221
252 259 254 215 210 232 223 176 164 176 175 174 175 171 170 173 172 162 160 156 151 151 153 158 158 155 159 160 163 181 159 158 167 151 151 162 183 179 186 186 183 204 194 191 188 158 219 226 240
256 242 261 241 218 236 233 201 174 185 187 175 174 176 172 174 171 160 166 166 160 157 159 165 171 161 166 172 174 182 178 183 178 171 157 167 198 185 183 222 176 201 195 199 204 187 210 232 237
255 237 240 243 224 226 229 230 197 191 197 180 178 179 176 175 171 165 172 170 165 163 164 167 174 170 180 173 176 181 174 183 189 175 150 176 195 192 196 193 205 199 185 211 224 205 219 241 217
256 251 243 236 246 238 236 235 224 205 197 193 184 181 181 176 170 169 174 173 170 168 171 178 178 173 183 171 180 182 162 188 189 178 165 185 200 199 202 183 215 204 198 202 216 211 222 234 242
260 261 257 251 254 249 241 246 226 206 206 205 189 181 183 179 171 171 175 177 176 172 174 170 169 172 176 177 189 189 187 193 193 180 171 182 196 201 191 190 202 218 220 199 223 212 222 227 244
263 273 271 264 265 267 254 251 226 184 197 211 191 182 179 180 177 173 176 177 177 174 171 167 166 172 176 188 192 197 200 194 185 167 169 183 190 200 189 181 191 198 218 218 227 252 232 239 245
261 265 265 263 264 263 261 257 235 203 186 190 188 181 176 181 175 172 171 168 171 169 167 166 166 173 178 190 194 198 208 194 183 177 174 188 184 190 190 182 184 194 218 218 217 230 219 243 255
244 249 253 251 248 256 268 265 242 206 180 176 181 178 171 171 172 171 167 167 169 169 168 166 168 175 181 188 194 195 204 202 200 198 186 198 192 185 183 192 179 195 210 216 219 217 234 237 249
244 244 247 256 256 254 253 254 249 236 176 164 164 161 165 173 174 174 170 166 169 172 171 168 169 176 182 186 190 191 193 205 202 204 205 202 208 185 167 179 181 192 207 224 213 230 228 228 239
244 248 254 256 258 262 247 252 261 300 181 167 164 156 162 171 169 165 164 164 171 175 171 169 167 174 182 185 182 187 189 204 209 190 209 209 206 194 168 181 183 189 201 225 226 224 247 241 242
244 254 260 258 264 266 249 240 217 188 220 194 162 156 157 165 166 164 165 164 167 174 169 165 166 173 179 183 185 187 191 195 203 211 211 213 200 203 174 184 191 196 198 210 229 232 234 236 234
233 243 254 269 272 271 267 253 186 159 192 221 185 164 158 166 162 160 158 154 161 168 172 166 166 171 178 182 184 186 183 193 203 211 211 210 206 197 193 195 200 206 206 206 212 230 225 225 233
245 246 243 247 258 271 275 264 180 141 153 164 139 125 120 133 142 143 140 147 155 159 164 163 168 175 178 179 179 185 182 188 198 203 204 198 204 203 197 200 202 211 211 207 215 238 238 229 227
Height
1470 1470 1471 1474 1472 1469 1472 1469 1467 1470 1471 1473 1473 1475 1479 1482 1488 1502 1504 1504 1505 1504 1505 1505 1505 1506 1507 1508 1509 1510 1511 1512 1513 1515 1516 1518 1520 1521 1523 1525 1527 1528 1530 1531 1533 1535 1537 1539 1541
1470 1471 1474 1471 1469 1477 1478 1470 1472 1473 1474 1475 1477 1480 1484 1489 1494 1500 1504 1506 1507 1507 1506 1507 1507 1508 1509 1510 1511 1512 1514 1515 1516 1517 1519 1520 1522 1523 1525 1527 1528 1530 1531 1533 1535 1537 1539 1540 1542
1470 1471 1472 1463 1465 1475 1479 1472 1472 1473 1475 1477 1481 1486 1489 1495 1499 1502 1506 1507 1508 1508 1508 1509 1509 1510 1511 1512 1513 1515 1516 1517 1518 1519 1520 1522 1523 1525 1527 1528 1530 1531 1533 1534 1536 1538 1540 1542 1544
1471 1470 1467 1463 1469 1467 1468 1470 1471 1474 1477 1479 1483 1490 1496 1499 1502 1505 1507 1509 1510 1510 1510 1510 1511 1512 1513 1514 1516 1517 1518 1519 1520 1521 1522 1523 1525 1526 1528 1530 1532 1533 1535 1536 1538 1539 1541 1543 1545
1472 1467 1463 1467 1468 1466 1466 1469 1472 1476 1479 1483 1488 1494 1500 1503 1505 1507 1509 1510 1511 1512 1511 1512 1513 1514 1515 1516 1517 1519 1520 1521 1522 1523 1523 1525 1526 1528 1530 1531 1533 1534 1536 1538 1539 1541 1543 1544 1546
1468 1461 1468 1473 1470 1466 1467 1470 1474 1478 1482 1485 1490 1496 1503 1506 1507 1509 1510 1512 1513 1513 1513 1514 1515 1516 1517 1518 1519 1521 1521 1522 1523 1524 1526 1527 1528 1529 1531 1533 1534 1536 1537 1539 1541 1542 1544 1545 1547
1465 1461 1468 1468 1472 1471 1469 1471 1475 1479 1483 1486 1490 1497 1504 1507 1509 1511 1512 1514 1515 1515 1515 1516 1517 1518 1519 1520 1521 1522 1523 1524 1526 1527 1528 1529 1530 1531 1533 1534 1536 1537 1539 1541 1542 1544 1545 1547 1548
1462 1461 1465 1467 1472 1474 1472 1475 1478 1481 1485 1488 1490 1496 1504 1508 1510 1512 1514 1515 1516 1517 1518 1518 1519 1519 1520 1521 1523 1524 1525 1526 1527 1528 1530 1531 1532 1533 1535 1536 1538 1539 1540 1542 1544 1545 1547 1548 1550
1461 1467 1474 1471 1471 1472 1473 1477 1481 1483 1486 1489 1492 1497 1504 1508 1511 1513 1515 1517 1518 1519 1520 1521 1521 1522 1523 1523 1525 1526 1527 1528 1529 1530 1532 1533 1534 1535 1536 1538 1539 1541 1542 1543 1545 1546 1548 1549 1551
1462 1470 1470 1465 1466 1469 1473 1476 1479 1482 1487 1492 1497 1502 1506 1509 1511 1513 1515 1517 1519 1520 1521 1522 1523 1524 1526 1526 1527 1527 1528 1529 1531 1532 1533 1535 1536 1537 1538 1539 1541 1542 1543 1545 1546 1548 1549 1550 1552
1463 1467 1464 1464 1466 1469 1472 1475 1477 1480 1486 1492 1498 1503 1507 1509 1511 1513 1515 1517 1519 1521 1522 1523 1524 1525 1527 1528 1528 1529 1529 1530 1532 1534 1535 1536 1537 1538 1540 1541 1542 1543 1544 1546 1547 1548 1550 1551 1553
1462 1463 1463 1464 1467 1469 1472 1475 1478 1482 1487 1493 1498 1502 1506 1509 1511 1513 1515 1517 1519 1521 1523 1524 1525 1526 1527 1528 1529 1530 1531 1532 1534 1535 1536 1538 1539 1540 1541 1542 1543 1544 1545 1547 1548 1549 1551 1552 1554
1461 1462 1463 1465 1467 1470 1473 1476 1479 1484 1489 1494 1498 1502 1505 1508 1511 1513 1516 1518 1520 1522 1523 1524 1525 1526 1527 1528 1530 1531 1533 1534 1535 1536 1537 1539 1540 1540 1542 1543 1544 1544 1546 1547 1549 1550 1552 1553 1554
1461 1461 1462 1464 1467 1470 1472 1476 1479 1484 1489 1494 1498 1501 1504 1507 1510 1513 1515 1518 1520 1522 1523 1524 1525 1526 1527 1529 1530 1531 1533 1535 1536 1536 1537 1538 1540 1540 1542 1543 1544 1545 1546 1548 1549 1550 1552 1552 1553
1459 1460 1462 1463 1465 1467 1471 1478 1479 1483 1488 1492 1496 1500 1503 1506 1509 1512 1514 1517 1519 1521 1522 1524 1525 1526 1527 1529 1530 1532 1534 1535 1536 1537 1538 1538 1539 1540 1542 1543 1544 1545 1546 1548 1549 1550 1551 1552 1553
1458 1463 1471 1466 1465 1466 1472 1484 1477 1481 1486 1490 1493 1498 1501 1505 1507 1510 1513 1516 1518 1520 1522 1523 1525 1526 1527 1529 1530 1532 1534 1535 1536 1537 1538 1538 1539 1541 1542 1543 1544 1545 1546 1547 1548 1549 1551 1551 1552
1465 1473 1475 1471 1464 1463 1468 1476 1475 1479 1482 1486 1490 1494 1499 1503 1505 1509 1511 1514 1516 1518 1520 1522 1524 1525 1527 1529 1530 1532 1533 1535 1536 1537 1538 1538 1540 1540 1541 1542 1544 1545 1546 1547 1548 1549 1550 1550 1551
1472 1472 1475 1474 1466 1462 1466 1468 1471 1474 1477 1482 1487 1491 1495 1499 1503 1507 1510 1513 1515 1517 1519 1521 1523 1525 1526 1528 1530 1531 1533 1534 1535 1536 1537 1538 1539 1540 1541 1542 1543 1544 1545 1546 1547 1548 1548 1549 1550
1458 1467 1474 1468 1461 1463 1464 1465 1467 1470 1472 1477 1482 1486 1491 1496 1501 1504 1509 1511 1513 1515 1517 1520 1522 1523 1525 1527 1528 1530 1532 1533 1535 1536 1536 1537 1538 1539 1540 1541 1542 1543 1544 1544 1545 1546 1547 1548 1548
1456 1464 1468 1463 1457 1459 1463 1464 1463 1466 1468 1471 1477 1482 1487 1492 1497 1501 1505 1509 1511 1513 1515 1518 1520 1522 1524 1526 1527 1529 1531 1532 1534 1535 1535 1536 1537 1538 1540 1540 1541 1542 1542 1543 1544 1544 1545 1546 1547
1455 1459 1461 1464 1457 1454 1462 1470 1466 1464 1466 1469 1472 1477 1482 1487 1492 1497 1502 1505 1508 1510 1513 1516 1518 1520 1522 1524 1526 1529 1530 1531 1533 1534 1534 1535 1536 1537 1538 1539 1540 1540 1541 1541 1542 1543 1543 1544 1545
1459 1448 1450 1456 1463 1466 1465 1486 1472 1465 1465 1466 1468 1472 1479 1483 1488 1493 1498 1502 1506 1508 1511 1514 1516 1518 1520 1523 1525 1527 1528 1529 1531 1532 1533 1534 1535 1536 1537 1537 1538 1538 1539 1540 1540 1541 1542 1543 1543
1451 1445 1448 1452 1459 1466 1465 1476 1473 1461 1467 1466 1465 1468 1474 1479 1484 1488 1493 1498 1503 1506 1509 1511 1514 1516 1519 1521 1523 1525 1527 1528 1529 1530 1531 1532 1533 1534 1535 1536 1536 1537 1537 1538 1538 1539 1539 1540 1541
1446 1449 1451 1452 1459 1480 1471 1475 1476 1461 1461 1460 1462 1466 1471 1476 1481 1485 1490 1495 1500 1504 1507 1509 1511 1514 1516 1519 1521 1523 1525 1527 1528 1529 1530 1531 1532 1532 1533 1534 1535 1535 1535 1536 1536 1537 1537 1538 1538
1449 1462 1477 1483 1484 1483 1467 1471 1467 1452 1450 1453 1457 1463 1468 1473 1478 1483 1487 1492 1496 1501 1504 1506 1508 1511 1514 1516 1519 1521 1523 1524 1526 1527 1528 1529 1530 1531 1531 1532 1532 1533 1533 1534 1534 1535 1535 1535 1535
1451 1456 1478 1493 1492 1482 1470 1474 1459 1445 1445 1449 1452 1458 1464 1469 1473 1479 1483 1488 1493 1497 1501 1504 1506 1508 1511 1514 1516 1518 1520 1522 1524 1525 1526 1527 1528 1529 1529 1530 1530 1530 1531 1532 1532 1532 1533 1533 1533
1452 1453 1447 1462 1470 1480 1476 1465 1455 1446 1446 1448 1451 1455 1461 1466 1470 1475 1480 1486 1490 1495 1498 1501 1503 1506 1509 1511 1514 1516 1517 1519 1521 1523 1524 1525 1526 1527 1527 1528 1528 1528 1529 1529 1530 1530 1530 1531 1531
1442 1445 1451 1462 1480 1485 1476 1471 1468 1459 1454 1450 1451 1454 1459 1464 1467 1472 1477 1483 1488 1492 1496 1499 1501 1503 1506 1509 1511 1513 1515 1516 1518 1520 1522 1523 1524 1525 1525 1525 1526 1526 1526 1527 1527 1528 1528 1528 1528
1446 1449 1452 1456 1459 1475 1483 1477 1449 1452 1450 1451 1452 1455 1458 1462 1466 1470 1475 1480 1485 1490 1494 1496 1499 1501 1504 1506 1508 1511 1512 1514 1515 1517 1519 1520 1521 1522 1523 1523 1523 1524 1524 1524 1525 1525 1525 1526 1526
1439 1443 1448 1465 1467 1462 1470 1470 1444 1446 1448 1449 1451 1454 1457 1461 1465 1469 1475 1479 1484 1488 1492 1495 1497 1499 1501 1504 1506 1508 1510 1511 1513 1514 1516 1517 1518 1519 1520 1520 1521 1521 1522 1522 1522 1522 1523 1523 1523